Date,TemperatureHighF,TemperatureAvgF,TemperatureLowF,DewpointHighF,DewpointAvgF,DewpointLowF,HumidityHigh,HumidityAvg,HumidityLow,PressureMaxIn,PressureMinIn,WindSpeedMaxMPH,WindSpeedAvgMPH,GustSpeedMaxMPH,PrecipitationSumIn
2013-1-1,32,25,13,-100,-100,-100,0,0,100,0.00,40.00,0,-999,0,0.01
2013-1-2,23,11,1,-100,-100,-100,0,0,100,0.00,40.00,0,-999,0,0.00
2013-1-3,22,8,-4,-100,-100,-100,0,0,100,0.00,40.00,0,-999,0,0.00
2013-1-4,34,23,5,-100,-100,-100,0,0,100,0.00,40.00,0,-999,0,0.08
2013-1-5,34,29,16,-100,-100,-100,0,0,100,0.00,40.00,0,-999,0,0.05
2013-1-6,36,23,14,-100,-100,-100,0,0,100,0.00,40.00,0,-999,0,0.05
2013-1-7,34,25,14,-100,-100,-100,0,0,100,0.00,40.00,0,-999,0,0.00
2013-1-8,41,22,7,-100,-100,-100,0,0,100,0.00,40.00,0,-999,0,0.00
2013-1-9,33,24,13,-100,-100,-100,0,0,100,0.00,40.00,0,-999,0,0.00
2013-1-10,43,36,27,-100,-100,-100,0,0,100,0.00,40.00,0,-999,0,0.04
2013-1-11,36,28,18,-100,-100,-100,0,0,100,0.00,40.00,0,-999,0,0.01
2013-1-12,39,34,32,-100,-100,-100,0,0,100,0.00,40.00,0,-999,0,0.00
2013-1-13,41,36,34,-100,-100,-100,0,0,100,0.00,40.00,0,-999,0,0.00
2013-1-14,58,40,31,-100,-100,-100,0,0,100,0.00,40.00,0,-999,0,0.00
2013-1-15,39,31,24,-100,-100,-100,0,0,100,0.00,40.00,0,-999,0,0.01
2013-1-16,29,28,27,-100,-100,-100,0,0,100,0.00,40.00,0,-999,0,0.27
2013-1-17,37,27,20,-100,-100,-100,0,0,100,0.00,40.00,0,-999,0,0.12
2013-1-18,20,14,5,-100,-100,-100,0,0,100,0.00,40.00,0,-999,0,0.11
2013-1-19,35,22,5,-100,-100,-100,0,0,100,0.00,40.00,0,-999,0,0.00
2013-1-20,46,32,22,-100,-100,-100,0,0,100,0.00,40.00,0,-999,0,0.08
2013-1-21,26,20,12,-100,-100,-100,0,0,100,0.00,40.00,0,-999,0,0.03
2013-1-22,23,15,5,-100,-100,-100,0,0,100,0.00,40.00,0,-999,0,0.01
2013-1-23,7,2,-4,-100,-100,-100,0,0,100,0.00,40.00,0,-999,0,0.01
2013-1-24,15,4,-9,-100,-100,-100,0,0,100,0.00,40.00,0,-999,0,0.01
2013-1-25,20,9,-5,-100,-100,-100,0,0,100,0.00,40.00,0,-999,0,0.01
2013-1-26,22,14,4,-100,-100,-100,0,0,100,0.00,40.00,0,-999,0,0.01
2013-1-27,29,13,-1,-100,-100,-100,0,0,100,0.00,40.00,0,-999,0,0.00
2013-1-28,24,15,5,-100,-100,-100,0,0,100,0.00,40.00,0,-999,0,0.00
2013-1-29,34,24,11,-100,-100,-100,0,0,100,0.00,40.00,0,-999,0,0.00
2013-1-30,37,33,31,-100,-100,-100,0,0,100,0.00,40.00,0,-999,0,0.20
2013-1-31,54,39,28,-100,-100,-100,0,0,100,0.00,40.00,0,-999,0,0.82
2013-2-1,28,24,16,-100,-100,-100,0,0,100,0.00,40.00,0,-999,0,0.01
2013-2-2,24,18,10,-100,-100,-100,0,0,100,0.00,40.00,0,-999,0,0.00
2013-2-3,27,22,16,-100,-100,-100,0,0,100,0.00,40.00,0,-999,0,0.00
2013-2-4,28,21,15,-100,-100,-100,0,0,100,0.00,40.00,0,-999,0,0.00
2013-2-5,27,16,3,-100,-100,-100,0,0,100,0.00,40.00,0,-999,0,0.00
2013-2-6,36,24,15,-100,-100,-100,0,0,100,0.00,40.00,0,-999,0,0.01
2013-2-7,26,17,9,-100,-100,-100,0,0,100,0.00,40.00,0,-999,0,0.01
2013-2-8,15,12,9,-100,-100,-100,0,0,100,0.00,40.00,0,-999,0,0.48
2013-2-9,19,15,12,-100,-100,-100,0,0,100,0.00,40.00,0,-999,0,1.19
2013-2-10,36,19,2,-100,-100,-100,0,0,100,0.00,40.00,0,-999,0,0.01
2013-2-11,25,17,7,-100,-100,-100,0,0,100,0.00,40.00,0,-999,0,0.25
2013-2-12,45,34,24,-100,-100,-100,0,0,100,0.00,40.00,0,-999,0,0.11
2013-2-13,43,32,23,-100,-100,-100,0,0,100,0.00,40.00,0,-999,0,0.04
2013-2-14,42,32,25,-100,-100,-100,0,0,100,0.00,40.00,0,-999,0,0.01
2013-2-15,48,32,21,-100,-100,-100,0,0,100,0.00,40.00,0,-999,0,0.01
2013-2-16,37,32,28,-100,-100,-100,0,0,100,0.00,40.00,0,-999,0,0.00
2013-2-17,27,22,17,-100,-100,-100,0,0,100,0.00,40.00,0,-999,0,0.08
2013-2-18,32,22,14,-100,-100,-100,0,0,100,0.00,40.00,0,-999,0,0.01
2013-2-19,40,26,8,-100,-100,-100,0,0,100,0.00,40.00,0,-999,0,0.13
2013-2-20,36,32,26,-100,-100,-100,0,0,100,0.00,40.00,0,-999,0,0.32
2013-2-21,28,25,21,-100,-100,-100,0,0,100,0.00,40.00,0,-999,0,0.03
2013-2-22,40,28,19,-100,-100,-100,0,0,100,0.00,40.00,0,-999,0,0.00
2013-2-23,36,30,25,-100,-100,-100,0,0,100,0.00,40.00,0,-999,0,0.04
2013-2-24,32,31,29,-100,-100,-100,0,0,100,0.00,40.00,0,-999,0,0.50
2013-2-25,43,33,27,-100,-100,-100,0,0,100,0.00,40.00,0,-999,0,0.20
2013-2-26,41,35,30,-100,-100,-100,0,0,100,0.00,40.00,0,-999,0,0.01
2013-2-27,34,32,29,-100,-100,-100,0,0,100,0.00,40.00,0,-999,0,0.61
2013-2-28,39,34,31,-100,-100,-100,0,0,100,0.00,40.00,0,-999,0,0.59
2013-3-1,36,33,28,-100,-100,-100,0,0,100,0.00,40.00,0,-999,0,0.01
2013-3-2,42,34,30,-100,-100,-100,0,0,100,0.00,40.00,0,-999,0,0.01
2013-3-3,41,35,31,-100,-100,-100,0,0,100,0.00,40.00,0,-999,0,0.05
2013-3-4,38,33,30,-100,-100,-100,0,0,100,0.00,40.00,0,-999,0,0.05
2013-3-5,44,37,32,-100,-100,-100,0,0,100,0.00,40.00,0,-999,0,0.02
2013-3-6,38,35,32,-100,-100,-100,0,0,100,0.00,40.00,0,-999,0,0.00
2013-3-7,35,33,31,-100,-100,-100,0,0,100,0.00,40.00,0,-999,0,0.03
2013-3-8,47,37,29,-100,-100,-100,0,0,100,0.00,40.00,0,-999,0,0.04
2013-3-9,59,38,25,-100,-100,-100,0,0,100,0.00,40.00,0,-999,0,0.04
2013-3-10,48,34,22,-100,-100,-100,0,0,100,0.00,40.00,0,-999,0,0.00
2013-3-11,54,40,33,-100,-100,-100,0,0,100,0.00,40.00,0,-999,0,0.00
2013-3-12,47,41,33,-100,-100,-100,0,0,100,0.00,40.00,0,-999,0,0.43
2013-3-13,46,40,30,-100,-100,-100,0,0,100,0.00,40.00,0,-999,0,0.46
2013-3-14,38,30,20,-100,-100,-100,0,0,100,0.00,40.00,0,-999,0,0.06
2013-3-15,37,25,15,-100,-100,-100,0,0,100,0.00,40.00,0,-999,0,0.05
2013-3-16,34,29,23,-100,-100,-100,0,0,100,0.00,40.00,0,-999,0,0.01
2013-3-17,31,24,16,-100,-100,-100,0,0,100,0.00,40.00,0,-999,0,0.01
2013-3-18,38,23,7,-100,-100,-100,0,0,100,0.00,40.00,0,-999,0,0.01
2013-3-19,31,28,23,-100,-100,-100,0,0,100,0.00,40.00,0,-999,0,0.79
2013-3-20,40,28,19,-100,-100,-100,0,0,100,0.00,40.00,0,-999,0,0.33
2013-3-21,46,30,19,-100,-100,-100,0,0,100,0.00,40.00,0,-999,0,0.03
2013-3-22,37,29,20,-100,-100,-100,0,0,100,0.00,40.00,0,-999,0,0.03
2013-3-23,39,31,22,-100,-100,-100,0,0,100,0.00,40.00,0,-999,0,0.03
2013-3-24,46,37,28,-100,-100,-100,0,0,100,0.00,40.00,0,-999,0,0.03
2013-3-25,42,33,22,-100,-100,-100,0,0,100,0.00,40.00,0,-999,0,0.02
2013-3-26,50,38,27,-100,-100,-100,0,0,100,0.00,40.00,0,-999,0,0.01
2013-3-27,49,37,25,-100,-100,-100,0,0,100,0.00,40.00,0,-999,0,0.01
2013-3-28,51,39,33,-100,-100,-100,0,0,100,0.00,40.00,0,-999,0,0.04
2013-3-29,52,41,31,-100,-100,-100,0,0,100,0.00,40.00,0,-999,0,0.01
2013-3-30,56,40,28,-100,-100,-100,0,0,100,0.00,40.00,0,-999,0,0.01
2013-3-31,55,38,23,-100,-100,-100,0,0,100,0.00,40.00,0,-999,0,0.00
2013-4-1,56,42,34,-100,-100,-100,0,0,100,0.00,40.00,0,-999,0,0.39
2013-4-2,39,32,26,-100,-100,-100,0,0,100,0.00,40.00,0,-999,0,0.05
2013-4-3,46,34,28,-100,-100,-100,0,0,100,0.00,40.00,0,-999,0,0.02
2013-4-4,56,40,29,-100,-100,-100,0,0,100,0.00,40.00,0,-999,0,0.03
2013-4-5,58,41,29,-100,-100,-100,0,0,100,0.00,40.00,0,-999,0,0.04
2013-4-6,44,33,26,-100,-100,-100,0,0,100,0.00,40.00,0,-999,0,0.01
2013-4-7,54,38,25,-100,-100,-100,0,0,100,0.00,40.00,0,-999,0,0.00
2013-4-8,65,47,35,-100,-100,-100,0,0,100,0.00,40.00,0,-999,0,0.00
2013-4-9,53,42,38,-100,-100,-100,0,0,100,0.00,40.00,0,-999,0,0.18
2013-4-10,54,46,40,-100,-100,-100,0,0,100,0.00,40.00,0,-999,0,0.22
2013-4-11,50,44,41,-100,-100,-100,0,0,100,0.00,40.00,0,-999,0,0.14
2013-4-12,39,34,32,-100,-100,-100,0,0,100,0.00,40.00,0,-999,0,0.33
2013-4-13,51,38,32,-100,-100,-100,0,0,100,0.00,40.00,0,-999,0,0.08
2013-4-14,49,41,34,-100,-100,-100,0,0,100,0.00,40.00,0,-999,0,0.06
2013-4-15,59,42,27,-100,-100,-100,0,0,100,0.00,40.00,0,-999,0,0.01
2013-4-16,62,47,34,-100,-100,-100,0,0,100,0.00,40.00,0,-999,0,0.02
2013-4-17,62,53,40,-100,-100,-100,0,0,100,0.00,40.00,0,-999,0,0.01
2013-4-18,53,43,30,-100,-100,-100,0,0,100,0.00,40.00,0,-999,0,0.02
2013-4-19,76,60,47,-100,-100,-100,0,0,100,0.00,40.00,0,-999,0,0.02
2013-4-20,66,52,43,-100,-100,-100,0,0,100,0.00,40.00,0,-999,0,0.19
2013-4-21,54,41,31,-100,-100,-100,0,0,100,0.00,40.00,0,-999,0,0.01
2013-4-22,55,40,26,-100,-100,-100,0,0,100,0.00,40.00,0,-999,0,0.01
2013-4-23,43,36,28,-100,-100,-100,0,0,100,0.00,40.00,0,-999,0,0.02
2013-4-24,76,52,41,-100,-100,-100,0,0,100,0.00,40.00,0,-999,0,0.01
2013-4-25,64,54,40,-100,-100,-100,0,0,100,0.00,40.00,0,-999,0,0.01
2013-4-26,62,46,30,-100,-100,-100,0,0,100,0.00,40.00,0,-999,0,0.01
2013-4-27,68,50,35,-100,-100,-100,0,0,100,0.00,40.00,0,-999,0,0.01
2013-4-28,70,51,33,-100,-100,-100,0,0,100,0.00,40.00,0,-999,0,0.02
2013-4-29,71,53,36,-100,-100,-100,0,0,100,0.00,40.00,0,-999,0,0.01
2013-4-30,73,54,35,-100,-100,-100,0,0,100,0.00,40.00,0,-999,0,0.03
2013-5-1,77,55,32,-100,-100,-100,0,0,100,0.00,40.00,0,-999,0,0.02
2013-5-2,74,52,38,-100,-100,-100,0,0,100,0.00,40.00,0,-999,0,0.04
2013-5-3,74,50,31,-100,-100,-100,0,0,100,0.00,40.00,0,-999,0,0.02
2013-5-4,71,52,38,-100,-100,-100,0,0,100,0.00,40.00,0,-999,0,0.01
2013-5-5,73,51,32,-100,-100,-100,0,0,100,0.00,40.00,0,-999,0,0.01
2013-5-6,77,54,34,-100,-100,-100,0,0,100,0.00,40.00,0,-999,0,0.01
2013-5-7,82,60,41,-100,-100,-100,0,0,100,0.00,40.00,0,-999,0,0.01
2013-5-8,76,62,48,-100,-100,-100,0,0,100,0.00,40.00,0,-999,0,0.03
2013-5-9,66,59,54,-100,-100,-100,0,0,100,0.00,40.00,0,-999,0,0.28
2013-5-10,76,63,55,-100,-100,-100,0,0,100,0.00,40.00,0,-999,0,0.08
2013-5-11,70,60,54,-100,-100,-100,0,0,100,0.00,40.00,0,-999,0,0.21
2013-5-12,70,59,46,-100,-100,-100,0,0,100,0.00,40.00,0,-999,0,0.22
2013-5-13,59,49,42,-100,-100,-100,0,0,100,0.00,40.00,0,-999,0,0.06
2013-5-14,57,46,32,-100,-100,-100,0,0,100,0.00,40.00,0,-999,0,0.03
2013-5-15,66,48,32,-100,-100,-100,0,0,100,0.00,40.00,0,-999,0,0.02
2013-5-16,77,60,46,-100,-100,-100,0,0,100,0.00,40.00,0,-999,0,0.04
2013-5-17,67,56,46,-100,-100,-100,0,0,100,0.00,40.00,0,-999,0,0.02
2013-5-18,68,54,40,-100,-100,-100,0,0,100,0.00,40.00,0,-999,0,0.01
2013-5-19,62,53,49,-100,-100,-100,0,0,100,0.00,40.00,0,-999,0,0.01
2013-5-20,77,60,50,-100,-100,-100,0,0,100,0.00,40.00,0,-999,0,0.17
2013-5-21,55,53,49,-100,-100,-100,0,0,100,0.00,40.00,0,-999,0,0.18
2013-5-22,58,53,49,-100,-100,-100,0,0,100,0.00,40.00,0,-999,0,0.39
2013-5-23,70,59,50,-100,-100,-100,0,0,100,0.00,40.00,0,-999,0,0.03
2013-5-24,71,62,51,-100,-100,-100,0,0,100,0.00,40.00,0,-999,0,0.22
2013-5-25,50,48,43,-100,-100,-100,0,0,100,0.00,40.00,0,-999,0,0.62
2013-5-26,55,48,42,-100,-100,-100,0,0,100,0.00,40.00,0,-999,0,0.36
2013-5-27,70,53,36,-100,-100,-100,0,0,100,0.00,40.00,0,-999,0,0.08
2013-5-28,75,56,37,-100,-100,-100,0,0,100,0.00,40.00,0,-999,0,0.05
2013-5-29,57,52,46,-100,-100,-100,0,0,100,0.00,40.00,0,-999,0,0.10
2013-5-30,90,71,56,-100,-100,-100,0,0,100,0.00,40.00,0,-999,0,0.05
2013-5-31,94,75,57,-100,-100,-100,0,0,100,0.00,40.00,0,-999,0,0.02
2013-6-1,97,78,63,-100,-100,-100,0,0,100,0.00,40.00,0,-999,0,0.04
2013-6-2,93,76,66,-100,-100,-100,0,0,100,0.00,40.00,0,-999,0,0.12
2013-6-3,83,70,59,-100,-100,-100,0,0,100,0.00,40.00,0,-999,0,0.17
2013-6-4,70,59,49,-100,-100,-100,0,0,100,0.00,40.00,0,-999,0,0.03
2013-6-5,77,60,45,-100,-100,-100,0,0,100,0.00,40.00,0,-999,0,0.01
2013-6-6,74,61,52,-100,-100,-100,0,0,100,0.00,40.00,0,-999,0,0.03
2013-6-7,59,55,51,-100,-100,-100,0,0,100,0.00,40.00,0,-999,0,0.29
2013-6-8,74,61,52,-100,-100,-100,0,0,100,0.00,40.00,0,-999,0,0.85
2013-6-9,79,65,52,-100,-100,-100,0,0,100,0.00,40.00,0,-999,0,0.07
2013-6-10,71,61,50,-100,-100,-100,0,0,100,0.00,40.00,0,-999,0,0.05
2013-6-11,61,56,54,-100,-100,-100,0,0,100,0.00,40.00,0,-999,0,0.55
2013-6-12,65,59,54,-100,-100,-100,0,0,100,0.00,40.00,0,-999,0,0.16
2013-6-13,70,60,48,-100,-100,-100,0,0,100,0.00,40.00,0,-999,0,0.03
2013-6-14,80,64,54,-100,-100,-100,0,0,100,0.00,40.00,0,-999,0,0.04
2013-6-15,79,64,48,-100,-100,-100,0,0,100,0.00,40.00,0,-999,0,0.04
2013-6-16,76,62,49,-100,-100,-100,0,0,100,0.00,40.00,0,-999,0,0.03
2013-6-17,82,66,55,-100,-100,-100,0,0,100,0.00,40.00,0,-999,0,0.05
2013-6-18,66,59,55,-100,-100,-100,0,0,100,0.00,40.00,0,-999,0,0.13
2013-6-19,77,62,48,-100,-100,-100,0,0,100,0.00,40.00,0,-999,0,0.02
2013-6-20,78,60,45,-100,-100,-100,0,0,100,0.00,40.00,0,-999,0,0.03
2013-6-22,86,76,68,-100,-100,-100,0,0,100,0.00,40.00,0,-999,0,0.02
2013-6-23,87,72,65,-100,-100,-100,0,0,100,0.00,40.00,0,-999,0,0.37
2013-6-24,93,75,66,-100,-100,-100,0,0,100,0.00,40.00,0,-999,0,0.89
2013-6-25,93,78,67,-100,-100,-100,0,0,100,0.00,40.00,0,-999,0,0.01
2013-6-26,77,70,61,-100,-100,-100,0,0,100,0.00,40.00,0,-999,0,0.08
2013-6-27,71,62,58,-100,-100,-100,0,0,100,0.00,40.00,0,-999,0,0.01
2013-6-28,64,61,58,-100,-100,-100,0,0,100,0.00,40.00,0,-999,0,0.48
2013-6-29,86,70,63,-100,-100,-100,0,0,100,0.00,40.00,0,-999,0,0.18
2013-6-30,86,74,63,-100,-100,-100,0,0,100,0.00,40.00,0,-999,0,0.07
2013-7-1,76,71,66,-100,-100,-100,0,0,100,0.00,40.00,0,-999,0,0.07
2013-7-2,70,64,59,-100,-100,-100,0,0,100,0.00,40.00,0,-999,0,0.17
2013-7-3,91,72,60,-100,-100,-100,0,0,100,0.00,40.00,0,-999,0,0.15
2013-7-4,95,81,67,-100,-100,-100,0,0,100,0.00,40.00,0,-999,0,0.02
2013-7-5,96,82,71,-100,-100,-100,0,0,100,0.00,40.00,0,-999,0,0.06
2013-7-6,92,79,70,-100,-100,-100,0,0,100,0.00,40.00,0,-999,0,0.01
2013-7-7,87,74,64,-100,-100,-100,0,0,100,0.00,40.00,0,-999,0,0.01
2013-7-8,77,72,65,-100,-100,-100,0,0,100,0.00,40.00,0,-999,0,0.23
2013-7-9,75,68,65,-100,-100,-100,0,0,100,0.00,40.00,0,-999,0,1.39
2013-7-10,69,65,63,-100,-100,-100,0,0,100,0.00,40.00,0,-999,0,0.45
2013-7-11,81,71,66,-100,-100,-100,0,0,100,0.00,40.00,0,-999,0,0.81
2013-7-12,83,69,59,-100,-100,-100,0,0,100,0.00,40.00,0,-999,0,0.34
2013-7-13,85,72,59,-100,-100,-100,0,0,100,0.00,40.00,0,-999,0,0.02
2013-7-14,92,76,63,-100,-100,-100,0,0,100,0.00,40.00,0,-999,0,0.05
2013-7-15,93,79,66,-100,-100,-100,0,0,100,0.00,40.00,0,-999,0,0.01
2013-7-16,95,79,67,-100,-100,-100,0,0,100,0.00,40.00,0,-999,0,0.02
2013-7-17,97,79,67,-100,-100,-100,0,0,100,0.00,40.00,0,-999,0,0.57
2013-7-18,91,76,69,-100,-100,-100,0,0,100,0.00,40.00,0,-999,0,0.77
2013-7-19,99,82,70,-100,-100,-100,0,0,100,0.00,40.00,0,-999,0,0.10
2013-7-20,88,79,70,-100,-100,-100,0,0,100,0.00,40.00,0,-999,0,0.02
2013-7-21,83,72,61,-100,-100,-100,0,0,100,0.00,40.00,0,-999,0,0.02
2013-7-22,79,68,64,-100,-100,-100,0,0,100,0.00,40.00,0,-999,0,0.05
2013-7-23,70,64,60,-100,-100,-100,0,0,100,0.00,40.00,0,-999,0,1.80
2013-7-24,83,71,59,-100,-100,-100,0,0,100,0.00,40.00,0,-999,0,0.02
2013-7-25,76,63,51,-100,-100,-100,0,0,100,0.00,40.00,0,-999,0,0.02
2013-7-26,72,66,62,-100,-100,-100,0,0,100,0.00,40.00,0,-999,0,0.10
2013-7-27,89,74,60,-100,-100,-100,0,0,100,0.00,40.00,0,-999,0,0.01
2013-7-28,75,68,61,-100,-100,-100,0,0,100,0.00,40.00,0,-999,0,0.02
2013-7-29,83,69,64,-100,-100,-100,0,0,100,0.00,40.00,0,-999,0,0.42
2013-7-30,84,70,61,-100,-100,-100,0,0,100,0.00,40.00,0,-999,0,0.39
2013-7-31,87,68,54,-100,-100,-100,0,0,100,0.00,40.00,0,-999,0,0.01
2013-8-1,83,68,58,-100,-100,-100,0,0,100,0.00,40.00,0,-999,0,0.03
2013-8-2,84,69,63,-100,-100,-100,0,0,100,0.00,40.00,0,-999,0,0.54
2013-8-3,82,67,57,-100,-100,-100,0,0,100,0.00,40.00,0,-999,0,0.05
2013-8-4,76,65,56,-100,-100,-100,0,0,100,0.00,40.00,0,-999,0,0.05
2013-8-5,80,62,51,-100,-100,-100,0,0,100,0.00,40.00,0,-999,0,0.01
2013-8-6,84,62,47,-100,-100,-100,0,0,100,0.00,40.00,0,-999,0,0.01
2013-8-7,82,64,50,-100,-100,-100,0,0,100,0.00,40.00,0,-999,0,0.02
2013-8-8,86,68,60,-100,-100,-100,0,0,100,0.00,40.00,0,-999,0,0.07
2013-8-9,73,70,68,-100,-100,-100,0,0,100,0.00,40.00,0,-999,0,1.44
2013-8-10,82,71,61,-100,-100,-100,0,0,100,0.00,40.00,0,-999,0,0.14
2013-8-11,83,65,51,-100,-100,-100,0,0,100,0.00,40.00,0,-999,0,0.05
2013-8-12,85,67,53,-100,-100,-100,0,0,100,0.00,40.00,0,-999,0,0.25
2013-8-13,72,65,58,-100,-100,-100,0,0,100,0.00,40.00,0,-999,0,0.48
2013-8-14,77,67,61,-100,-100,-100,0,0,100,0.00,40.00,0,-999,0,0.14
2013-8-15,80,62,51,-100,-100,-100,0,0,100,0.00,40.00,0,-999,0,0.07
2013-8-16,84,64,51,-100,-100,-100,0,0,100,0.00,40.00,0,-999,0,0.04
2013-8-17,85,66,53,-100,-100,-100,0,0,100,0.00,40.00,0,-999,0,0.05
2013-8-18,79,66,54,-100,-100,-100,0,0,100,0.00,40.00,0,-999,0,0.01
2013-8-19,87,69,56,-100,-100,-100,0,0,100,0.00,40.00,0,-999,0,0.02
2013-8-20,91,72,58,-100,-100,-100,0,0,100,0.00,40.00,0,-999,0,0.01
2013-8-21,92,73,60,-100,-100,-100,0,0,100,0.00,40.00,0,-999,0,0.02
2013-8-22,91,76,63,-100,-100,-100,0,0,100,0.00,40.00,0,-999,0,0.02
2013-8-23,81,70,59,-100,-100,-100,0,0,100,0.00,40.00,0,-999,0,0.02
2013-8-24,83,63,49,-100,-100,-100,0,0,100,0.00,40.00,0,-999,0,0.02
2013-8-25,85,64,48,-100,-100,-100,0,0,100,0.00,40.00,0,-999,0,0.02
2013-8-26,82,69,61,-100,-100,-100,0,0,100,0.00,40.00,0,-999,0,0.30
2013-8-27,89,71,63,-100,-100,-100,0,0,100,0.00,40.00,0,-999,0,0.04
2013-8-28,87,87,87,-100,-100,-100,0,0,100,0.00,40.00,0,-999,0,0.00
2013-8-30,88,76,69,-100,-100,-100,0,0,100,0.00,40.00,0,-999,0,0.03
2013-8-31,83,74,68,-100,-100,-100,0,0,100,0.00,40.00,0,-999,0,0.40
2013-9-1,84,74,68,-100,-100,-100,0,0,100,0.00,40.00,0,-999,0,0.50
2013-9-2,72,68,66,-100,-100,-100,0,0,100,0.00,40.00,0,-999,0,1.00
2013-9-3,80,70,64,-100,-100,-100,0,0,100,0.00,40.00,0,-999,0,0.30
2013-9-4,83,68,56,-100,-100,-100,0,0,100,0.00,40.00,0,-999,0,0.10
2013-9-5,72,61,49,-100,-100,-100,0,0,100,0.00,40.00,0,-999,0,0.20
2013-9-6,72,54,41,-100,-100,-100,0,0,100,0.00,40.00,0,-999,0,0.10
2013-9-7,78,61,48,-100,-100,-100,0,0,100,0.00,40.00,0,-999,0,0.00
2013-9-8,68,60,47,-100,-100,-100,0,0,100,0.00,40.00,0,-999,0,0.10
2013-9-9,72,53,39,-100,-100,-100,0,0,100,0.00,40.00,0,-999,0,0.10
2013-9-10,70,60,50,-100,-100,-100,0,0,100,0.00,40.00,0,-999,0,0.10
2013-9-11,96,76,64,-100,-100,-100,0,0,100,0.00,40.00,0,-999,0,0.50
2013-9-12,74,69,67,-100,-100,-100,0,0,100,0.00,40.00,0,-999,0,1.20
2013-9-13,70,65,58,-100,-100,-100,0,0,100,0.00,40.00,0,-999,0,0.90
2013-9-14,69,59,51,-100,-100,-100,0,0,100,0.00,40.00,0,-999,0,0.90
2013-9-15,71,54,44,-100,-100,-100,0,0,100,0.00,40.00,0,-999,0,0.10
2013-9-16,65,56,45,-100,-100,-100,0,0,100,0.00,40.00,0,-999,0,0.10
2013-9-17,69,50,36,-100,-100,-100,0,0,100,0.00,40.00,0,-999,0,0.10
2013-9-18,51,42,39,-100,-100,-100,0,0,100,0.00,40.00,0,-999,0,0.10
2013-9-19,83,56,42,-100,-100,-100,0,0,100,0.00,40.00,0,-999,0,0.10
2013-9-20,82,59,45,-100,-100,-100,0,0,100,0.00,40.00,0,-999,0,0.10
2013-9-21,74,60,51,-100,-100,-100,0,0,100,0.00,40.00,0,-999,0,0.10
2013-9-22,76,64,51,-100,-100,-100,0,0,100,0.00,40.00,0,-999,0,0.30
2013-9-23,63,51,41,-100,-100,-100,0,0,100,0.00,40.00,0,-999,0,0.10
2013-9-24,61,48,35,-100,-100,-100,0,0,100,0.00,40.00,0,-999,0,0.10
2013-9-25,60,50,42,-100,-100,-100,0,0,100,0.00,40.00,0,-999,0,0.10
2013-9-26,69,54,42,-100,-100,-100,0,0,100,0.00,40.00,0,-999,0,0.20
2013-9-27,72,59,50,-100,-100,-100,0,0,100,0.00,40.00,0,-999,0,0.20
2013-9-28,78,56,45,-100,-100,-100,0,0,100,0.00,40.00,0,-999,0,0.10
2013-9-29,75,54,44,-100,-100,-100,0,0,100,0.00,40.00,0,-999,0,0.00
2013-9-30,73,52,40,-100,-100,-100,0,0,100,0.00,40.00,0,-999,0,0.00
2013-10-1,62,56,48,-100,-100,-100,0,0,100,0.00,40.00,0,-999,0,0.00
2013-10-2,82,62,49,-100,-100,-100,0,0,100,0.00,40.00,0,-999,0,0.20
2013-10-3,80,59,46,-100,-100,-100,0,0,100,0.00,40.00,0,-999,0,0.10
2013-10-4,72,56,44,-100,-100,-100,0,0,100,0.00,40.00,0,-999,0,0.10
2013-10-5,65,58,53,-100,-100,-100,0,0,100,0.00,40.00,0,-999,0,0.00
2013-10-6,53,52,49,-100,-100,-100,0,0,100,0.00,40.00,0,-999,0,0.00
2013-10-7,67,55,49,-100,-100,-100,0,0,100,0.00,40.00,0,-999,0,0.40
2013-10-8,66,53,41,-100,-100,-100,0,0,100,0.00,40.00,0,-999,0,0.60
2013-10-9,65,46,34,-100,-100,-100,0,0,100,0.00,40.00,0,-999,0,0.10
2013-10-10,69,49,36,-100,-100,-100,0,0,100,0.00,40.00,0,-999,0,0.10
2013-10-11,67,54,45,-100,-100,-100,0,0,100,0.00,40.00,0,-999,0,0.00
2013-10-12,56,50,42,-100,-100,-100,0,0,100,0.00,40.00,0,-999,0,0.00
2013-10-13,57,52,49,-100,-100,-100,0,0,100,0.00,40.00,0,-999,0,0.00
2013-10-14,69,53,39,-100,-100,-100,0,0,100,0.00,40.00,0,-999,0,0.00
2013-10-15,65,57,50,-100,-100,-100,0,0,100,0.00,40.00,0,-999,0,0.00
2013-10-16,62,55,50,-100,-100,-100,0,0,100,0.00,40.00,0,-999,0,0.10
2013-10-17,75,58,49,-100,-100,-100,0,0,100,0.00,40.00,0,-999,0,0.10
2013-10-18,67,56,46,-100,-100,-100,0,0,100,0.00,40.00,0,-999,0,0.20
2013-10-19,64,50,37,-100,-100,-100,0,0,100,0.00,40.00,0,-999,0,0.10
2013-10-20,63,51,41,-100,-100,-100,0,0,100,0.00,40.00,0,-999,0,0.10
2013-10-21,65,47,34,-100,-100,-100,0,0,100,0.00,40.00,0,-999,0,0.10
2013-10-22,56,47,38,-100,-100,-100,0,0,100,0.00,40.00,0,-999,0,0.00
2013-10-23,54,43,35,-100,-100,-100,0,0,100,0.00,40.00,0,-999,0,0.00
2013-10-24,50,42,32,-100,-100,-100,0,0,100,0.00,40.00,0,-999,0,0.10
2013-10-25,47,38,30,-100,-100,-100,0,0,100,0.00,40.00,0,-999,0,0.10
2013-10-26,48,38,27,-100,-100,-100,0,0,100,0.00,40.00,0,-999,0,0.00
2013-10-27,54,44,33,-100,-100,-100,0,0,100,0.00,40.00,0,-999,0,0.00
2013-10-28,53,39,30,-100,-100,-100,0,0,100,0.00,40.00,0,-999,0,0.10
2013-10-29,49,32,22,-100,-100,-100,0,0,100,0.00,40.00,0,-999,0,0.10
2013-10-30,51,35,25,-100,-100,-100,0,0,100,0.00,40.00,0,-999,0,0.00
2013-10-31,47,35,26,-100,-100,-100,0,0,100,0.00,40.00,0,-999,0,0.00
2013-11-1,66,60,47,-100,-100,-100,0,0,100,0.00,40.00,0,-999,0,0.70
2013-11-2,64,51,38,-100,-100,-100,0,0,100,0.00,40.00,0,-999,0,0.10
2013-11-3,47,39,29,-100,-100,-100,0,0,100,0.00,40.00,0,-999,0,0.00
2013-11-4,42,30,21,-100,-100,-100,0,0,100,0.00,40.00,0,-999,0,0.00
2013-11-5,50,32,21,-100,-100,-100,0,0,100,0.00,40.00,0,-999,0,0.00
2013-11-6,57,42,30,-100,-100,-100,0,0,100,0.00,40.00,0,-999,0,0.00
2013-11-7,56,50,41,-100,-100,-100,0,0,100,0.00,40.00,0,-999,0,0.10
2013-11-8,45,38,29,-100,-100,-100,0,0,100,0.00,40.00,0,-999,0,0.10
2013-11-9,42,37,34,-100,-100,-100,0,0,100,0.00,40.00,0,-999,0,0.00
2013-11-10,42,37,33,-100,-100,-100,0,0,100,0.00,40.00,0,-999,0,0.00
2013-11-11,46,38,32,-100,-100,-100,0,0,100,0.00,40.00,0,-999,0,0.00
2013-11-12,38,32,27,-100,-100,-100,0,0,100,0.00,40.00,0,-999,0,0.00
2013-11-13,35,26,16,-100,-100,-100,0,0,100,0.00,40.00,0,-999,0,0.00
2013-11-14,48,36,25,-100,-100,-100,0,0,100,0.00,40.00,0,-999,0,0.00
2013-11-15,53,36,26,-100,-100,-100,0,0,100,0.00,40.00,0,-999,0,0.00
2013-11-16,57,37,29,-100,-100,-100,0,0,100,0.00,40.00,0,-999,0,0.00
2013-11-17,39,34,26,-100,-100,-100,0,0,100,0.00,40.00,0,-999,0,0.00
2013-11-18,61,48,39,-100,-100,-100,0,0,100,0.00,40.00,0,-999,0,0.50
2013-11-19,44,36,31,-100,-100,-100,0,0,100,0.00,40.00,0,-999,0,0.30
2013-11-20,40,30,22,-100,-100,-100,0,0,100,0.00,40.00,0,-999,0,0.00
2013-11-21,46,28,17,-100,-100,-100,0,0,100,0.00,40.00,0,-999,0,0.00
2013-11-22,37,33,28,-100,-100,-100,0,0,100,0.00,40.00,0,-999,0,0.00
2013-11-23,40,34,27,-100,-100,-100,0,0,100,0.00,40.00,0,-999,0,0.10
2013-11-24,26,22,19,-100,-100,-100,0,0,100,0.00,40.00,0,-999,0,0.10
2013-11-25,28,23,17,-100,-100,-100,0,0,100,0.00,40.00,0,-999,0,0.10
2013-11-26,33,30,27,-100,-100,-100,0,0,100,0.00,40.00,0,-999,0,0.00
2013-11-27,42,37,31,-100,-100,-100,0,0,100,0.00,40.00,0,-999,0,1.70
2013-11-28,34,28,19,-100,-100,-100,0,0,100,0.00,40.00,0,-999,0,0.30
2013-11-29,27,18,10,-100,-100,-100,0,0,100,0.00,40.00,0,-999,0,0.10
2013-11-30,30,17,5,-100,-100,-100,0,0,100,0.00,40.00,0,-999,0,0.00
2013-12-1,33,30,27,-100,-100,-100,0,0,100,0.00,40.00,0,-999,0,0.10
2013-12-2,36,34,32,-100,-100,-100,0,0,100,0.00,40.00,0,-999,0,0.20
2013-12-3,42,34,27,-100,-100,-100,0,0,100,0.00,40.00,0,-999,0,0.10
2013-12-4,38,28,20,-100,-100,-100,0,0,100,0.00,40.00,0,-999,0,0.00
2013-12-5,33,30,24,-100,-100,-100,0,0,100,0.00,40.00,0,-999,0,0.00
2013-12-6,43,36,33,-100,-100,-100,0,0,100,0.00,40.00,0,-999,0,0.10
2013-12-7,36,31,27,-100,-100,-100,0,0,100,0.00,40.00,0,-999,0,0.10
2013-12-8,29,25,22,-100,-100,-100,0,0,100,0.00,40.00,0,-999,0,0.10
2013-12-9,25,24,22,-100,-100,-100,0,0,100,0.00,40.00,0,-999,0,0.10
2013-12-10,34,27,18,-100,-100,-100,0,0,100,0.00,40.00,0,-999,0,0.10
2013-12-11,30,18,9,-100,-100,-100,0,0,100,0.00,40.00,0,-999,0,0.00
2013-12-12,20,12,3,-100,-100,-100,0,0,100,0.00,40.00,0,-999,0,0.10
2013-12-13,23,11,2,-100,-100,-100,0,0,100,0.00,40.00,0,-999,0,0.10
2013-12-14,14,7,-3,-100,-100,-100,0,0,100,0.00,40.00,0,-999,0,0.00
2013-12-15,22,14,9,-100,-100,-100,0,0,100,0.00,40.00,0,-999,0,0.40
2013-12-16,22,12,4,-100,-100,-100,0,0,100,0.00,40.00,0,-999,0,0.10
2013-12-17,14,3,-12,-100,-100,-100,0,0,100,0.00,40.00,0,-999,0,0.10
2013-12-18,34,20,10,-100,-100,-100,0,0,100,0.00,40.00,0,-999,0,0.10
2013-12-19,33,21,13,-100,-100,-100,0,0,100,0.00,40.00,0,-999,0,0.10
2013-12-20,36,28,18,-100,-100,-100,0,0,100,0.00,40.00,0,-999,0,0.10
2013-12-21,38,34,32,-100,-100,-100,0,0,100,0.00,40.00,0,-999,0,0.00
2013-12-22,34,30,27,-100,-100,-100,0,0,100,0.00,40.00,0,-999,0,0.40
2013-12-23,32,30,27,-100,-100,-100,0,0,100,0.00,40.00,0,-999,0,0.20
2013-12-24,31,25,14,-100,-100,-100,0,0,100,0.00,40.00,0,-999,0,0.20
2013-12-25,21,11,2,-100,-100,-100,0,0,100,0.00,40.00,0,-999,0,0.10
2013-12-26,20,13,6,-100,-100,-100,0,0,100,0.00,40.00,0,-999,0,0.00
2013-12-27,33,16,2,-100,-100,-100,0,0,100,0.00,40.00,0,-999,0,0.10
2013-12-28,38,22,7,-100,-100,-100,0,0,100,0.00,40.00,0,-999,0,0.10
2013-12-29,33,26,18,-100,-100,-100,0,0,100,0.00,40.00,0,-999,0,0.60
2013-12-30,33,24,2,-100,-100,-100,0,0,100,0.00,40.00,0,-999,0,0.70
2013-12-31,16,2,-8,-100,-100,-100,0,0,100,0.00,40.00,0,-999,0,0.10
2014-1-1,23,4,-10,-100,-100,-100,0,0,100,0.00,40.00,0,-999,0,0.00
2014-1-2,7,1,-5,-100,-100,-100,0,0,100,0.00,40.00,0,-999,0,0.30